Weather in Nechayevka

Russia / Penza Oblast     53°16′31″N   44°27′53″E
temp.,
°C
wind,
m/s
gust,
m/s
humid.,
%
clouds,
%
prec.,
mm/h
press.,
hPa
HPBL,
m
4 march, thu
thu400:00−7wsw5119668 0.1 1011232
03:00−4wsw7139580 0.2 1010461
06:00−2wsw71294100 0.1 1007735
09:00−2wsw91592100 0.3 1005828
12:000wsw101790100 0.1 1003844
15:000wsw101790100 0.1 1002954
18:00−1wsw81488100 0.1 10021007
21:00−1wsw61294100 0.2 1002676
5 march, fri
fri500:00−1wsw61195100 0.2 1001503
03:00−2wsw61196100 0.5 1001546
06:00−2wnw4897100 1.0 1001406
09:00−3n3596100 1.8 1004361
12:00−2nnw4694100 0.4 1006519
15:00−3nw458998 0.5 1009541
18:00−8wnw339224 0.0 101121
21:00−9w349444 0.0 101454
6 march, sat
sat600:00−11w449542 0.0 101473
03:00−11wnw349568 0.0 101657
06:00−12nw3395100 0.0 101630
09:00−10n2294100 0.0 101782
12:00−8nne2389100 0.0 1016251
15:00−8ne2390100 0.0 1016237
18:00−13ne228433 0.0 101521
21:00−16ene117517 0.0 101620
7 march, sun
sun700:00−15sw227147 0.0 101520
03:00−13sw349073 0.0 101589
06:00−13wsw499790 0.1 1015143
09:00−11wsw5109692 0.1 1015299
12:00−8sw7128567 0.0 1012711
15:00−7sw9148583 0.0 1009901
18:00−6sw101885100 0.0 10051096
21:00−5sw111893100 0.9 10021068
8 march, mon
mon800:00−4w61286100 0.9 1002963
03:00−11w459186 1.0 100479
06:00−12sw458531 0.0 100362
09:00−9ssw5118452 0.0 1002301
12:00−4sw2495100 1.3 998314
15:00−6wnw131885100 2.2 9991205
18:00−10w8178160 0.0 1004834
21:00−10w9168666 0.1 1008710